User: anonymous   Login
Location: Unspecified
(0.0000°N, 0.0000°E)
Time: 21:10:24
(UTC+00:00)
Language:

LANDSAT 8 - Orbit

View from above orbital plane
View from above orbital plane
View from above satellite
View from above satellite

Ground track
Ground track

The orbit data is extracted from the following two-line orbital elements,

1 39084U 13008A   16125.36837617  .00000110  00000-0  34550-4 0  9995
2 39084  98.2266 195.6154 0001454  96.8053 263.3311 14.57121464171525
Epoch (UTC): 04 May 2016 08:50:27
Eccentricity: 0.0001454
inclination: 98.2266°
perigee height: 701 km
apogee height: 703 km
right ascension of ascending node: 195.6154°
argument of perigee: 96.8053°
revolutions per day: 14.57121464
mean anomaly at epoch: 263.3311°
orbit number at epoch: 17152

The dashed part of the orbit path shows where the satellite is in the earth's shadow,  

DLR